Regional Weather Roundup
Issued by NWS Raleigh/Durham, NC

Home | Current Version | Previous Version | Text Only | Print | Product List | Glossary On
Versions: 1 2 3 4 5 6 7 8 9 10 11 12 13 14 15 16 17 18 19 20 21 22 23 24 25 26 27
000
ASUS42 KRAH 260510
RWRRAH
NORTH CAROLINA WEATHER ROUNDUP
NATIONAL WEATHER SERVICE RALEIGH NC
100 AM EDT SUN OCT 26 2014

NOTE: "FAIR" INDICATES FEW OR NO CLOUDS BELOW 12,000 FEET WITH NO
SIGNIFICANT WEATHER AND/OR OBSTRUCTIONS TO VISIBILITY.

NCZ001-053-055-056-065-067-260600-
WESTERN NORTH CAROLINA

CITY           SKY/WX    TMP DP  RH WIND       PRES   REMARKS
ASHEVILLE      CLEAR     50  46  86 CALM      30.03F
JEFFERSON      CLEAR     56  45  67 W13G29    29.98S
MORGANTON      CLEAR     49  49  97 S5        30.00S
HICKORY        CLEAR     59  50  72 NW3       29.94S
RUTHERFORDTON  CLEAR     54  47  78 NW3       29.96S
MOUNT AIRY     CLEAR     53  48  82 CALM      29.92F
BOONE          NOT AVBL
$$

NCZ021-022-025-041-071-084-088-260600-
CENTRAL NORTH CAROLINA

CITY           SKY/WX    TMP DP  RH WIND       PRES   REMARKS
CHARLOTTE      CLEAR     52  43  71 NW3       29.93F
GREENSBORO     CLEAR     59  47  64 W8        29.88F
WINSTON-SALEM  CLEAR     59  46  62 W8        29.90F
RALEIGH-DURHAM CLEAR     53  43  68 SW6       29.86F
FORT BRAGG     CLEAR     56  42  59 W8        29.87S
FAYETTEVILLE   CLEAR     57  43  59 SW9       29.87F
BURLINGTON     CLEAR     56  41  57 SW3       29.87F
LAURINBURG     CLEAR     50  45  83 W5        29.89F
$$

NCZ011-015-027-028-043-044-047-080-103-260600-
NORTHEASTERN NORTH CAROLINA

CITY           SKY/WX    TMP DP  RH WIND       PRES   REMARKS
ROCKY MT-WILSO CLEAR     57  43  59 SW8       29.83F
GREENVILLE     CLEAR     54  45  71 SW6       29.85F
WASHINGTON     CLEAR     55  45  69 W5        29.83F
ELIZABETH CITY CLEAR     57  48  72 SW10      29.78F
MANTEO         CLEAR     58  50  75 SW8       29.80F
CAPE HATTERAS  CLEAR     61  53  75 W8        29.82F
$$

NCZ078-087-090-091-093-098-101-260600-
SOUTHEASTERN NORTH CAROLINA

CITY           SKY/WX    TMP DP  RH WIND       PRES   REMARKS
LUMBERTON      CLEAR     52  44  74 SW5       29.88F
GOLDSBORO      CLEAR     54  49  83 W7        29.83F
KINSTON        CLEAR     52  46  78 SW5       29.85F
KENANSVILLE    CLEAR     53  45  72 SW8       29.87F
NEW BERN       CLEAR     56  46  69 SW6       29.86F
CHERRY POINT   CLEAR     54  48  80 SW6       29.86F
BEAUFORT       CLEAR     62  51  67 W7        29.85F
JACKSONVILLE   CLEAR     54  46  74 W7        29.86F
WILMINGTON     CLEAR     55  46  71 CALM      29.89F
$$




USA.gov is the U.S. government's official web portal to all federal, state and local government web resources and services.